This is the latest recevied weather packets stored in our database for station/object EA1ZE. If no packets are shown the sender has not sent any weather packets the latest 1 day(s).
| Time | Temp. | Humidity | Pressure | Rain* | Wind** | Luminosity | Snow |
|---|---|---|---|---|---|---|---|
| 1778101202 | 12.22° C | 64% | 1012 hPa | 0 mm | - | - | - |
| 1778097673 | 13.89° C | 57% | 1011.6 hPa | 0 mm | - | - | - |
| 1778095860 | 15° C | 52% | 1011.4 hPa | 0 mm | - | - | - |
| 1778093170 | 16.11° C | 40% | 1011.3 hPa | 0 mm | - | - | - |
| 1778090455 | 17.22° C | 39% | 1011.4 hPa | 0 mm | - | - | - |
| 1778089554 | 17.22° C | 39% | 1011.5 hPa | 0 mm | - | - | - |
| 1778085953 | 16.11° C | 44% | 1011.8 hPa | 0 mm | - | - | - |
| 1778083248 | 16.67° C | 43% | 1012 hPa | 0 mm | - | - | - |
| 1778082347 | 17.78° C | 40% | 1012.1 hPa | 0 mm | - | - | - |
| 1778080560 | 18.33° C | 40% | 1012.2 hPa | 0 mm | - | - | - |
| 1778077846 | 17.78° C | 42% | 1012.7 hPa | 0 mm | - | - | - |
| 1778076037 | 17.22° C | 44% | 1013.1 hPa | 0 mm | - | - | - |
| 1778068815 | 14.44° C | 52% | 1013.9 hPa | 0 mm | - | - | - |
| 1778067915 | 13.89° C | 54% | 1014 hPa | 0 mm | - | - | - |
| 1778066109 | 13.33° C | 59% | 1014.3 hPa | 0 mm | - | - | - |
| 1778059850 | 10.56° C | 82% | 1014.9 hPa | 0 mm | - | - | - |
| 1778058942 | 9.44° C | 87% | 1014.9 hPa | 0 mm | - | - | - |
| 1778058039 | 8.33° C | 91% | 1014.9 hPa | 0 mm | - | - | - |
| 1778057138 | 7.78° C | 92% | 1014.9 hPa | 0 mm | - | - | - |
| 1778056238 | 7.22° C | 93% | 1014.8 hPa | 0 mm | - | - | - |
| 1778054441 | 6.11° C | 93% | 1014.8 hPa | 0 mm | - | - | - |
| 1778053543 | 5.56° C | 93% | 1014.9 hPa | 0 mm | - | - | - |
| 1778052641 | 5° C | 93% | 1014.8 hPa | 0 mm | - | - | - |
| 1778051734 | 5° C | 93% | 1014.8 hPa | 0 mm | - | - | - |
| 1778049932 | 4.44° C | 92% | 1014.7 hPa | 0 mm | - | - | - |
* Rain latest hour (hover to see other rain measurements)
** Current wind speed in m/s (hover to see current wind gust speed)